This is the latest recevied weather packets stored in our database for station/object N5XJB. If no packets are shown the sender has not sent any weather packets the latest 10 day(s).
| Time | Temp. | Humidity | Pressure | Rain* | Wind** | Luminosity | Snow |
|---|---|---|---|---|---|---|---|
| 1777627844 | 18.33° C | 98% | 1012.7 hPa | 7.11 mm | - | 0 W/m² | - |
| 1777627542 | 18.33° C | 98% | 1013.4 hPa | 2.79 mm | - | 0 W/m² | - |
| 1777627238 | 18.33° C | 98% | 1012.4 hPa | 1.52 mm | - | 0 W/m² | - |
| 1777626935 | 18.33° C | 98% | 1011.4 hPa | 0.76 mm | - | 0 W/m² | - |
| 1777626631 | 18.33° C | 98% | 1011 hPa | 0.25 mm | - | 0 W/m² | - |
| 1777626327 | 18.33° C | 98% | 1011 hPa | 0 mm | - | 0 W/m² | - |
| 1777626025 | 18.33° C | 98% | 1011 hPa | 0 mm | - | 0 W/m² | - |
| 1777625720 | 18.33° C | 98% | 1010.4 hPa | 14.99 mm | - | 0 W/m² | - |
| 1777625416 | 18.33° C | 98% | 1010.4 hPa | 13.97 mm | - | 0 W/m² | - |
| 1777625112 | 18.33° C | 98% | 1011 hPa | 13.97 mm | - | 0 W/m² | - |
| 1777624809 | 18.33° C | 98% | 1011.4 hPa | 13.46 mm | - | 0 W/m² | - |
| 1777624504 | 18.33° C | 98% | 1011.7 hPa | 12.95 mm | - | 0 W/m² | - |
| 1777624203 | 18.33° C | 98% | 1011.4 hPa | 9.91 mm | - | 0 W/m² | - |
| 1777623898 | 18.89° C | 98% | 1013.1 hPa | 3.56 mm | - | 0 W/m² | - |
| 1777623594 | 18.89° C | 98% | 1013.1 hPa | 1.02 mm | - | 0 W/m² | - |
| 1777623293 | 18.89° C | 98% | 1012.1 hPa | 0.76 mm | - | 0 W/m² | - |
| 1777622989 | 18.89° C | 98% | 1011 hPa | 0.25 mm | - | 0 W/m² | - |
| 1777622686 | 18.89° C | 98% | 1011 hPa | 0 mm | - | 0 W/m² | - |
| 1777622382 | 18.89° C | 98% | 1010.7 hPa | 0.25 mm | - | 0 W/m² | - |
| 1777622079 | 18.89° C | 98% | 1011 hPa | 0.25 mm | - | 0 W/m² | - |
| 1777621774 | 18.89° C | 98% | 1011.7 hPa | 0 mm | - | 0 W/m² | - |
| 1777621471 | 18.89° C | 98% | 1011.7 hPa | 0 mm | - | 0 W/m² | - |
| 1777621167 | 18.89° C | 98% | 1011.7 hPa | 0 mm | - | 0 W/m² | - |
| 1777620863 | 18.89° C | 98% | 1011.7 hPa | 0 mm | - | 0 W/m² | - |
| 1777620560 | 18.89° C | 98% | 1011.7 hPa | 0 mm | - | 0 W/m² | - |
* Rain latest hour (hover to see other rain measurements)
** Current wind speed in m/s (hover to see current wind gust speed)